Location: Hastringsfeld
(50.9620°N, 10.4787°E)
Time: 11:15:08
(UTC+00:00)

ADEOS II - Pass Details

Date: 26 September 2023
Orbit: 798 x 798 km, 98.7° (Epoch: 28 November)

Event Time Altitude Azimuth Distance (km) Brightness Sun altitude
Rises 03:57:53 0° 2° (N) 3,321 5.5 -12.1°
Reaches altitude 10° 04:02:04 10° 330° (NNW) 2,385 4.4 -11.4°
Maximum altitude 04:03:33 11° 313° (NW) 2,298 4.1 -11.2°
Drops below altitude 10° 04:05:02 10° 297° (WNW) 2,381 4.1 -11.0°
Enters shadow 04:05:36 - 291° (WNW) 2,452 4.1 -10.9°
